Location: Kenockee Observatory
(43.0173°N, 82.7297°W)
Time: 13:22:52
(UTC-04:00)

Daily predictions for brighter satellites

Satellite Brightness Start Highest point End
(mag) Time Altitude Azimuth Time Altitude Azimuth Time Altitude Azimuth
SL-16 R/B 4.5 18:52:44 10° NW 18:57:41 32° WSW 19:02:37 10° SSW
Cosmos 1315 Rocket 3.1 18:55:49 10° N 18:59:49 50° ENE 19:03:49 10° SSE
Cosmos 1452 Rocket 3.6 18:59:49 10° NNW 19:05:07 87° WSW 19:10:22 10° SSE
Cosmos 1484 Rocket 2.8 19:01:28 10° S 19:05:11 83° WSW 19:08:55 10° NNW
Cosmos 2333 4.4 19:01:15 10° NNW 19:06:53 55° ENE 19:12:31 10° SE
Cosmos 44 Rocket 3.3 19:02:47 10° SSW 19:07:24 60° ESE 19:12:03 10° NE
Cosmos 2084 4.1 19:06:00 10° NNW 19:09:22 30° NE 19:12:49 10° ESE
Cosmos 1703 3.5 19:07:58 10° N 19:11:54 77° W 19:15:47 10° S
Cosmos 1908 3.3 19:08:09 10° S 19:11:58 54° E 19:15:47 10° NNE
Cosmos 2237 Rocket 3.3 19:08:03 10° N 19:12:40 24° NE 19:17:16 10° ESE
SPOT 3 Rocket 3.9 19:07:53 10° SE 19:12:47 44° ENE 19:17:44 10° N
Cosmos 2237 4.3 19:07:17 10° NNW 19:13:03 88° WSW 19:18:46 10° SSE
Cosmos 2221 2.8 19:10:05 10° SSE 19:14:14 47° E 19:18:26 10° NNE
Cosmos 921 Rocket 3.3 19:12:31 10° NNW 19:16:57 76° WSW 19:21:17 10° S
Cosmos 1821 Rocket 4.4 19:12:23 10° SSE 19:18:05 41° E 19:23:53 10° NNE
Lacrosse 5 rocket 3.7 19:18:49 10° NNW 19:20:46 13° N 19:22:41 10° NNE
Cosmos 2227 Rocket 3.4 19:17:22 10° SE 19:21:17 20° E 19:25:13 10° NE
CZ-2C R/B 3.8 19:18:02 10° N 19:22:33 79° WNW 19:26:58 10° SSW
H-2A R/B 4.4 19:20:27 10° ESE 19:22:55 16° ENE 19:25:24 10° NNE
SKYMED 2 3.7 19:20:36 10° NNE 19:24:52 53° E 19:29:07 10° S
SL-16 R/B 3.9 19:22:34 10° N 19:25:46 15° NE 19:28:01 12° ENE
Cosmos 2098 Rocket 3.8 19:22:57 10° SSE 19:27:38 49° E 19:33:33 10° NNE
Cosmos 158 Rocket 3.9 19:22:39 10° SSW 19:27:43 86° ESE 19:32:59 10° NNE
GP-B 3.6 19:27:13 10° N 19:31:38 65° W 19:36:00 10° SSW
Cosmos 2360 Rocket 3.7 19:26:52 10° NW 19:32:09 41° WSW 19:37:24 10° S
Cosmos 1300 3.5 19:30:05 10° SSE 19:33:24 29° E 19:36:44 10° NNE
BREEZE-M DEB (TANK) 3.9 19:33:14 10° W 19:34:37 15° SW 19:35:58 10° S
Gbstr 26 Del rocket 3.6 19:32:03 10° WNW 19:36:56 81° SSW 19:43:02 10° SE
APEX 3.2 19:34:00 10° SW 19:36:59 55° WNW 19:39:43 10° NNE
Cosmos 1980 4.2 19:32:25 10° N 19:37:40 38° ENE 19:42:54 10° SE
Cosmos 1048 Rocket 3.9 19:34:47 10° SSW 19:39:54 89° W 19:45:04 10° NNE
ALOS 2.3 19:35:53 10° SSE 19:40:25 54° ENE 19:44:59 10° N
FENGYUN 3A 3.7 19:37:34 10° SSE 19:42:50 58° ENE 19:48:09 10° N
Meteor 2-10 4.3 19:39:45 10° SSE 19:44:29 43° E 19:49:21 10° NNE
Abrixas 2.3 19:45:20 10° W 19:47:22 45° NNW 19:47:49 37° NNE
SOZ 4.5 19:45:23 10° SW 19:47:37 83° SSE 19:48:27 33° ENE
Cosmos 2123 Rocket 4.2 19:42:18 10° N 19:48:20 48° ENE 19:54:23 10° SSE
COSMOS 2428 3.1 19:44:18 10° NNW 19:49:57 67° WSW 19:55:34 10° SSE
Cosmos 2251 Rocket 4.3 19:46:10 10° SSE 19:50:39 29° E 19:54:09 15° NE
Cosmos 1605 Rocket 4.3 19:47:08 10° SSE 19:52:40 38° E 19:58:14 10° NNE
Cosmos 2333 Rocket 2.2 19:46:59 10° NNW 19:52:45 70° ENE 19:58:28 10° SSE
Cosmos 2219 3.3 19:47:25 10° SSW 19:53:10 85° WNW 19:58:57 10° NNE
ERS-2 4.3 19:50:11 10° SSW 19:53:26 29° W 19:56:43 10° NW
NOSS 0 Rocket 3.9 19:48:43 10° NNW 19:54:53 67° ENE 20:00:59 10° SE
Cosmos 2297 Rocket 2.8 19:53:07 10° SSE 19:58:05 32° ESE 20:00:57 21° ENE
Cosmos 1726 2.1 19:55:01 10° S 19:58:41 83° W 20:02:23 10° N
Sich 1 2.9 20:00:13 10° N 20:04:36 76° E 20:09:01 10° SSE
SL-8 R/B 4.4 20:01:27 10° WNW 20:06:04 44° N 20:08:21 26° NE
NOAA 12 4.2 20:01:10 10° SSE 20:06:28 81° WSW 20:11:50 10° NNW
Cosmos 44 4.4 20:03:24 10° WSW 20:07:26 37° NW 20:11:30 10° NNE
Cosmos 2082 4.1 20:04:11 10° S 20:09:28 40° ESE 20:12:12 25° NE
Thor Agena Rocket 3.4 20:06:10 10° NNE 20:11:12 59° ESE 20:16:10 10° S
Cosmos 1331 Rocket 3.9 20:06:40 10° NNW 20:11:54 72° ENE 20:16:38 12° SSE
COSMO-SKYMED 1 3.7 20:08:44 10° N 20:12:54 45° WNW 20:17:02 10° SW
Cosmos 2219 Rocket 2.6 20:12:42 10° NNW 20:18:15 63° WSW 20:23:46 10° S
Resurs 01 Rocket 3.4 20:21:17 18° NNE 20:21:17 18° NNE 20:22:50 10° N
Abrixas rocket 2.7 20:21:05 10° WNW 20:23:56 51° NNW 20:23:56 51° NNW
FengYun 1-2 T 4.1 20:22:10 10° SSE 20:27:39 83° ENE 20:33:10 10° NNW
BREEZE-M DEB (TANK) 3.0 20:19:37 10° W 20:28:57 67° N 20:29:58 49° ENE
CZ-4C R/B 3.1 20:24:57 10° WSW 20:30:03 46° NW 20:35:48 10° NNE
Cosmos 1666 Rocket 4.2 20:28:21 10° NNW 20:32:36 54° W 20:36:48 10° S
Cosmos 2228 Rocket 3.0 20:29:51 10° S 20:34:20 67° E 20:38:54 10° NNE
Cosmos 1328 Rocket 3.4 20:31:44 10° S 20:36:08 85° E 20:40:31 10° N
Cosmos 1633 Rocket 3.5 20:31:58 10° NNW 20:36:21 61° W 20:40:43 10° S
FREGAT/IRIS 4.5 20:37:52 26° NNW 20:37:52 26° NNW 20:39:24 10° NNW
Meteor 2-2 Rocket 4.2 20:32:21 10° S 20:38:03 86° WNW 20:43:43 10° N
BREEZE-M R/B 3.5 20:37:28 10° SW 20:39:11 39° SW 20:39:11 39° SW
Cosmos 1933 Rocket 4.3 20:36:11 10° N 20:39:03 39° NNE 20:39:03 39° NNE
USA 234 4.4 20:39:19 24° NE 20:41:24 29° NNE 20:46:51 10° NW
Cosmos 1302 Rocket 3.8 20:36:51 10° NNW 20:42:06 75° ENE 20:42:54 62° SE
Meteor 1-27 4.1 20:43:09 10° S 20:48:49 72° E 20:54:37 10° NNE
Cosmos 494 Rocket 4.4 20:44:58 10° SSW 20:50:01 61° WNW 20:54:55 11° NNE
SJ-6B 4.0 20:56:39 37° NW 20:56:39 37° NW 20:59:11 10° NNW
H-2A R/B 4.0 20:55:28 29° SW 20:56:50 40° W 21:00:34 10° NNW
Cosmos 2237 Rocket 2.7 20:51:31 10° NNW 20:57:07 57° WSW 21:00:17 25° S
Lacrosse 5 rocket 3.8 20:58:39 10° NNW 21:00:02 15° N 21:00:02 15° N
MOS 1-B Rocket 3.8 21:03:12 56° S 21:04:33 87° WSW 21:10:54 10° NNW
Cosmos 2227 Rocket 2.6 20:59:11 10° SW 21:04:47 62° WNW 21:08:05 25° N
SL-16 R/B 2.4 21:05:08 10° NNW 21:09:56 63° N 21:09:56 63° N
ATLAS 5 CENTAUR R/B 4.2 21:14:48 10° NNW 21:17:13 18° N 21:17:13 18° N
Envisat 4.3 21:28:03 33° NNW 21:28:03 33° NNW 21:30:50 10° NNW
Cosmos 2297 Rocket 3.4 21:36:44 10° SW 21:42:00 39° WNW 21:42:52 37° NW
BREEZE-M DEB (TANK) 4.2 21:32:34 10° WNW 21:42:21 46° WSW 21:42:21 46° WSW
Resurs 01 Rocket 4.5 21:58:53 13° NW 21:58:53 13° NW 21:59:27 10° NW
